Terminal Aerodrome Forecast
Issued by NWS Spokane, WA

Home | Current Version | Previous Version | Text Only | Print | Product List | Glossary On
Versions: 1 2 3 4 5 6 7 8 9 10 11 12 13 14 15 16 17 18 19 20 21 22 23 24 25 26
000
FTUS46 KOTX 280523
TAFEAT
TAF
KEAT 280523Z 2806/2906 32004KT P6SM BKN150 BKN200
     FM281000 30009KT P6SM FEW150
     FM282000 14005KT P6SM SKC
     FM290400 32008KT P6SM SKC=

USA.gov is the U.S. government's official web portal to all federal, state and local government web resources and services.